User: anonymous   Login
Location: Ailly
(50.0793°N, 1.9944°E)
Time: 21:28:40
(UTC+00:00)
Language:

CZ-4C R/B - Orbit

View from above orbital plane
View from above orbital plane
View from above satellite
View from above satellite

Ground track
Ground track

The orbit is defined by the following mean orbital elements,

1 36416U          26069.07580326 +.00000000 +00000-0 +31724-3 0 00007
2 36416  63.3887 313.3327 0690109   2.6477 357.7924 13.72984456    06
Epoch (UTC): 10 March 2026 01:49:09
Eccentricity: 0.0690109
inclination: 63.3887°
perigee height: 480 km
apogee height: 1497 km
right ascension of ascending node: 313.3327°
argument of perigee: 2.6477°
revolutions per day: 13.72984456
mean anomaly at epoch: 357.7924°

The dashed part of the orbit path shows where the satellite is in the earth's shadow,  

DLR